Location: Peterborough
(44.3091°N, 78.3197°W)
Time: 00:07:27
(UTC-04:00)

Altair - Pass Details

Date: 05 August 2024
Orbit: 1501 x 1682 km, 47.2° (Epoch: 19 September)

Event Time Altitude Azimuth Distance (km) Brightness Sun altitude
Rises 20:47:58 0° 294° (WNW) 4,718 13.2 -3.4°
Reaches altitude 10° 20:51:07 10° 290° (WNW) 3,712 11.4 -3.9°
Maximum altitude 21:00:06 55° 216° (SW) 1,761 7.9 -5.3°
Drops below altitude 10° 21:08:54 10° 142° (SE) 3,643 8.9 -6.7°
Enters shadow 21:10:12 - 140° (SE) 4,054 9.1 -6.9°
